STARLINK-4525 (53401 NORAD) Tracking and Keplerian Element Data

This shows tracking and keplerian element data for the satellite.

Feedback or suggestion? Click here.




ElementValue
Catalog53401
NameSTARLINK-4525
Epoch Orbit789
Epoch Day270.25001157
Epoch Year2022
RAAN17.9509
Inclination53.2205
Eccentricity0.0001988
Argument of Perigee66.4623
Mean Anonmoly236.8598
Mean Motion15.08809279
Decay Rate0.00048377
L11 53401U 22097P 22270.25001157 .00048377 00000+0 30395-2 0 9997
L22 53401 53.2205 17.9509 0001988 66.4623 236.8598 15.08809279 7890

Live tracking and technical data element details for STARLINK-4525 (NORAD 53401). STARLINK-4525 can be tracked NOW for your location showing map with azimuth and elevation plus other details from your city location.

Track the satellite on the map from your city or location and see movement details for azimuth, elevation, latitude, longitude, range, height, and movement on the map or in text.







IsCatalogInMostPopularTable: catalog: 53401, numindb: 2
Update: records affected: 1



GetName: 53401 STARLINK-4525

Hit Count: updated at: Thu, 29 Sep 2022 10:50:14 GMT